Voltar ao catálogo

GALILEO 23

2C9

AtivoNavegaçãoMEO
NORAD 43566·PAYLOAD·🇪🇺 EU

Lançado Jul 25, 2018 de Guiana Space Centre

Loading…

Próximas Passagens (próximas 24 horas)

TLE

AtualizadoSource: CelesTrak SupGP

Época: Sep 13, 2026, 23:59 UTC

1 43566C 18060C   26256.99979167  .00000000  00000+0  00000+0 0  2561
2 43566  57.1361 339.3875 0003528 273.2845  37.7070  1.70476559    15

Acompanhe GALILEO 23 em tempo real com AllMySat

Download on the App Store